This demonstration page uses our WeatherBlox Daily Observations layout. Learn more.

Left ArrowRight Arrow

39.01783, -85.05884

Hourly Observations for March 15, 2022

Temp ( °F °C ) Dew Point ( °F °C ) Humidity (%) Winds ( mph kmh ) Pressure ( in mb ) Visibility ( mi km ) Precip ( " mm )
12:52 am 00:52 Partly Cloudy 47 8.3 30 -1.1 52 52 S 9 15 30.22 1024 10 16 0.00 0.00
1:52 am 01:52 Partly Cloudy 47 8.3 28 -2.2 48 48 S 7 11 30.22 1023 10 16 0.00 0.00
2:52 am 02:52 Mostly Clear 46 7.8 30 -1.1 54 54 S 6 9 30.21 1023 10 16 0.00 0.00
3:52 am 03:52 Partly Cloudy 47 8.3 30 -1.1 52 52 S 6 9 30.20 1023 10 16 0.00 0.00
4:52 am 04:52 Mostly Cloudy 46 7.8 30 -1.1 54 54 S 5 7 30.21 1023 10 16 0.00 0.00
5:52 am 05:52 Mostly Cloudy 45 7.2 31 -0.6 58 58 S 6 9 30.21 1023 10 16 0.00 0.00
6:52 am 06:52 Cloudy 45 7.2 31 -0.6 58 58 S 7 11 30.22 1023 10 16 0.00 0.00
7:52 am 07:52 Cloudy 45 7.2 33 0.6 63 63 S 8 13 30.22 1024 10 16 0.00 0.00
8:52 am 08:52 Cloudy 47 8.3 36 2.2 66 66 S 7 11 30.23 1024 10 16 0.00 0.00
9:52 am 09:52 Mostly Cloudy 51 10.6 33 0.6 50 50 S 6 9 30.24 1024 10 16 0.00 0.00
10:52 am 10:52 Cloudy 53 11.7 34 1.1 48 48 SSW 7 11 30.24 1024 10 16 0.00 0.00
11:52 am 11:52 Mostly Cloudy 58 14.4 32 0 38 38 SW 7 11 30.23 1024 10 16 0.00 0.00
12:52 pm 12:52 Mostly Cloudy 61 16.1 34 1.1 36 36 SSW 7 11 30.24 1024 10 16 0.00 0.00
1:52 pm 13:52 Partly Cloudy 63 17.2 36 2.2 37 37 S 5 7 30.20 1023 10 16 0.00 0.00
2:52 pm 14:52 Partly Cloudy 67 19.4 36 2.2 32 32 WSW 10 17 30.17 1022 10 16 0.00 0.00
3:52 pm 15:52 Partly Cloudy 68 20 37 2.8 32 32 W 13 20 30.14 1021 10 16 0.00 0.00
4:52 pm 16:52 Mostly Cloudy 65 18.3 37 2.8 36 36 W 8 13 30.14 1021 10 16 0.00 0.00
5:52 pm 17:52 Mostly Cloudy 65 18.3 37 2.8 36 36 W 7 11 30.14 1021 10 16 0.00 0.00
6:52 pm 18:52 Mostly Cloudy 64 17.8 39 3.9 40 40 W 6 9 30.14 1021 10 16 0.00 0.00
7:52 pm 19:52 Mostly Clear 60 15.6 38 3.3 44 44 W 5 7 30.14 1021 10 16 0.00 0.00
8:52 pm 20:52 Mostly Clear 56 13.3 38 3.3 51 51 NW 3 6 30.15 1021 10 16 0.00 0.00
9:52 pm 21:52 Mostly Clear 55 12.8 38 3.3 53 53 Calm 30.16 1021 10 16 0.00 0.00
10:52 pm 22:52 Mostly Clear 53 11.7 38 3.3 57 57 Calm 30.15 1021 10 16 0.00 0.00
11:52 pm 23:52 Clear 51 10.6 38 3.3 61 61 S 3 6 30.14 1021 10 16 0.00 0.00

Powered by AerisWeather